CDT,Max TemperatureF,Mean TemperatureF,Min TemperatureF,Max Dew PointF,MeanDew PointF,Min DewpointF,Max Humidity, Mean Humidity, Min Humidity, Max Sea Level PressureIn, Mean Sea Level PressureIn, Min Sea Level PressureIn, Max VisibilityMiles, Mean VisibilityMiles, Min VisibilityMiles, Max Wind SpeedMPH, Mean Wind SpeedMPH, Max Gust SpeedMPH,PrecipitationIn, CloudCover, Events, WindDirDegrees
2012-10-1,66,52,37,47,41,36,100,71,42,29.96,29.91,29.84,10,6,0,10,4,35,0.00,0,Fog,202
2012-10-2,67,55,42,52,48,41,96,77,58,29.97,29.93,29.87,10,8,0,13,6,18,0.00,1,Fog,37
2012-10-3,71,57,43,54,48,43,100,72,44,30.01,29.97,29.95,10,3,0,12,3,15,0.00,5,Fog,22
2012-10-4,71,58,44,54,46,31,100,70,39,30.03,29.95,29.86,10,6,0,24,11,31,0.00,3,Fog,223
2012-10-5,54,46,38,30,27,23,64,51,38,30.05,30.01,29.95,10,10,10,26,14,31,0.00,2,,261
2012-10-6,50,43,35,30,26,24,75,57,39,30.19,30.09,29.98,10,10,10,21,9,28,0.00,5,,305
2012-10-7,52,42,32,28,23,17,70,48,26,30.18,30.12,30.05,10,10,10,17,6,23,0.00,4,,259
2012-10-8,60,45,30,30,27,22,78,55,32,30.05,29.93,29.79,10,10,10,26,15,37,0.00,4,,192
2012-10-9,54,47,39,46,40,33,93,70,46,29.83,29.79,29.73,10,8,3,24,11,30,0.46,7,Rain,233
2012-10-10,49,41,33,35,27,23,89,64,38,30.10,30.00,29.84,10,10,9,26,11,35,0.00,3,,263
2012-10-11,54,41,28,34,30,22,76,56,35,30.32,30.05,29.90,10,10,10,21,11,32,T,6,Rain,282
2012-10-12,50,38,26,34,26,19,85,57,29,30.50,30.39,30.25,10,10,10,14,6,17,0.00,0,,205
2012-10-13,54,48,41,52,46,34,100,85,70,30.25,29.92,29.75,10,3,0,22,8,26,1.29,8,Fog-Rain,180
2012-10-14,50,48,45,49,47,44,100,93,86,29.76,29.62,29.47,10,5,1,25,14,33,2.02,8,Rain,360
2012-10-15,55,46,37,42,38,35,92,71,50,29.94,29.86,29.73,10,10,10,15,6,22,T,6,,313
2012-10-16,63,50,37,48,43,35,92,74,55,29.92,29.73,29.49,10,10,7,20,10,24,T,2,,162
2012-10-17,69,57,44,55,50,43,100,78,55,29.47,29.36,29.22,10,6,0,21,8,25,0.52,4,Fog-Rain,158
2012-10-18,56,50,44,54,45,40,93,85,77,29.46,29.29,29.13,10,9,2,18,9,26,0.08,8,Rain,191
2012-10-19,50,46,42,45,43,39,96,85,74,29.63,29.54,29.45,10,9,4,10,6,13,0.03,8,Rain,46
2012-10-20,59,49,38,45,42,37,93,72,51,29.90,29.74,29.62,10,10,6,9,4,12,T,6,,308
2012-10-21,61,48,34,46,38,33,100,76,51,30.03,29.97,29.91,10,4,0,13,4,16,0.00,0,Fog,167
2012-10-22,60,53,46,52,49,43,93,83,72,30.00,29.98,29.94,10,6,2,18,8,22,T,7,,36
2012-10-23,63,57,50,58,53,46,100,92,83,29.97,29.92,29.87,10,5,0,18,7,23,0.01,7,Fog,94
2012-10-24,72,64,55,63,58,54,100,87,73,29.91,29.86,29.74,10,4,0,18,6,24,0.00,7,Fog,139
2012-10-25,70,55,39,63,54,33,89,81,73,30.01,29.67,29.51,10,7,1,30,18,40,0.51,7,Rain,233
2012-10-26,47,39,30,34,28,25,85,67,49,30.35,30.24,30.00,10,10,10,22,9,26,0.00,1,,280
2012-10-27,45,36,27,26,22,17,85,61,36,30.38,30.34,30.32,10,10,10,15,6,28,0.00,0,,317
2012-10-28,47,37,26,28,23,18,92,67,42,30.42,30.38,30.35,10,10,10,13,4,16,0.00,0,,12
2012-10-29,49,39,28,30,26,23,92,66,39,30.40,30.32,30.18,10,10,10,21,10,25,0.00,0,,9
2012-10-30,44,40,35,28,25,22,70,58,45,30.14,29.97,29.86,10,10,10,29,19,40,0.00,2,,350
2012-10-31,47,38,28,31,27,21,85,69,53,29.86,29.84,29.81,10,10,10,23,12,29,0.00,4,,328